Regional Weather Roundup
Issued by NWS Charleston, SC

Current Version | Previous Version | Graphics & Text | Print | Product List | Glossary On
Versions: 1 2 3 4 5 6 7 8 9 10 11 12 13 14 15 16 17 18 19 20 21 22 23 24 25 26 27 28 29 30 31 32 33 34 35 36 37 38 39 40 41 42 43 44 45 46 47 48 49 50
000
ASUS42 KCHS 161212
RWRCHS

REGIONAL WEATHER ROUNDUP
NATIONAL WEATHER SERVICE CHARLESTON SC
800 AM EDT MON OCT 16 2017

NOTE: "FAIR" INDICATES FEW OR NO CLOUDS BELOW 12,000 FEET WITH NO
SIGNIFICANT WEATHER AND/OR OBSTRUCTIONS TO VISIBILITY.

NOT ALL STATIONS ARE QUALITY CONTROLLED. USE DATA WITH CAUTION...
ESPECIALLY DEWPOINT OBSERVATIONS.

SCZ027-030-031-034>040-042>050-161300-
...SOUTHEAST SOUTH CAROLINA...

CITY           SKY/WX    TMP DP  RH WIND       PRES   REMARKS
N CHARLESTON   FOG       69  69 100 W3        30.01R VSB 3/4
6HR MIN TEMP:  68; 6HR MAX TEMP:  70;

WATERFRONT PRK NOT AVBL
JOHNS ISLAND   FOG       70  70 100 CALM      30.01S VSB<1/4
PINOPOLIS        N/A     70  70 100 W6        29.92S
MONCKS CORNER    N/A     68  66  94 CALM      30.01R FOG
SUMMERVILLE    FOG       68  68 100 W3        30.02R VSB 1
BEAUFORT MCAS  FOG       72  72 100 CALM      30.02R VSB 1/2
6HR MIN TEMP:  70; 6HR MAX TEMP:  73;

BEAUFORT ARPT  CLOUDY    72  72 100 W3        30.01S FOG
HILTON HEAD IS FOG       72  72 100 CALM      30.02R VSB 3/4
WALTERBORO     CLOUDY    68  68 100 W5        30.03R
ALLENDALE      NOT AVBL

...SOUTHERN MIDLANDS AND PEE DEE...

CITY           SKY/WX    TMP DP  RH WIND       PRES   REMARKS
GEORGETOWN     FOG       64  63  94 CALM      30.01S VSB 1/4
KINGSTREE      FOG       66  64  94 CALM      30.01R VSB 1/4
ORANGEBURG     CLOUDY    69  68  96 SW7       30.01R
6HR MIN TEMP:  67; 6HR MAX TEMP:  69;

BARNWELL         N/A     72  72 100 SW3       30.01S FOG
AIKEN          CLOUDY    68  68 100 SW8       30.05R
MANNING        FOG       70  68  94 MISG      30.01R VSB 3/4
COLUMBIA       MOCLDY    70  67  90 W3        30.00R
6HR MIN TEMP:  66; 6HR MAX TEMP:  70;

SUMTER         PTCLDY    69  67  93 S6        29.97S
6HR MIN TEMP:  68; 6HR MAX TEMP:  70;

FLORENCE       CLOUDY    68  68 100 SW7       29.99S FOG
6HR MIN TEMP:  66; 6HR MAX TEMP:  68;

MYRTLE BEACH   CLEAR     68  68 100 CALM      30.02R
N MYRTLE BEACH CLEAR     70  69  97 W3        29.99S
6HR MIN TEMP:  69; 6HR MAX TEMP:  71;


$$

GAZ063-065-086>088-099>101-113>116-118-119-134>141-150-161300-
...SOUTHEAST GEORGIA...

CITY           SKY/WX    TMP DP  RH WIND       PRES   REMARKS
SAVANNAH ARPT  FOG       72  72 100 W5        30.03R VSB 1/4
6HR MIN TEMP:  69; 6HR MAX TEMP:  72;

HUNTER AAF     FOG       71  70  97 W3        30.00R VSB 1/4
6HR MIN TEMP:  68; 6HR MAX TEMP:  71;

FORT STEWART   FOG       72  71  97 W3        30.01R VSB 1/4
6HR MIN TEMP:  69; 6HR MAX TEMP:  72;

STATESBORO     CLOUDY    73  73 100 W5        30.02F
SYLVANIA       MOSUNNY   70  70 100 CALM      30.03S FOG
CLAXTON        CLOUDY    74  73  98 CALM      30.03R

...CSRA...CENTRAL AND FAR SOUTHEAST GEORGIA...

CITY           SKY/WX    TMP DP  RH WIND       PRES   REMARKS
THOMSON        CLOUDY    69  66  92 CALM      30.07S
AUGUSTA-BUSH   LGT RAIN  72  68  87 SW6       30.00R
6HR MIN TEMP:  66; 6HR MAX TEMP:  73; 6HR PCP: TRACE;

AUGUSTA-DANIEL MOCLDY    72  67  84 VRB3      30.02R
SWAINSBORO     PTSUNNY   70  70 100 CALM      30.04R FOG
VIDALIA        FOG       72  72 100 W5        30.04R VSB<1/4
EASTMAN        FAIR     N/A N/A N/A CALM      30.05S HAZE
HAZLEHURST     FOG       71  69  93 CALM      30.03R VSB 1/4
ALMA           FOG       72  71  97 CALM      30.02S VSB 1/4
6HR MIN TEMP:  69; 6HR MAX TEMP:  72;

WAYCROSS       FOG       71  68  90 CALM      30.03S VSB 1/4
JESUP          NOT AVBL
BAXLEY         FOG       70  70 100 CALM      30.02F VSB<1/4
BRUNSWICK      FOG       70  68  94 CALM      30.03R VSB 1/2
SAINT SIMONS   MOCLDY    74  73  97 CALM      30.01R
6HR MIN TEMP:  72; 6HR MAX TEMP:  77;


$$

SCZ027-028-034-036>038-045-046-048>050-GAZ119-141-161300-
...LAKE AND SUPPLEMENTAL COASTAL OBSERVATIONS...

STATION/POSITION TIME  TEMP    WIND        PRES    WAVE   SWELL
                       AIR SEA DIR/SP/G            HT/PER HT/PER/DIR
                 (UTC) (F)     (DEG/KT/KT) (MB)    (FT/S) (FT/S/D)
WINYAH BAY       1045   71     300/  4     1016.0
LAKE MURRAY      1120   72     270/  8/ 11 1014.9
ACE BASIN NERRS  1045   71        CALM     1016.0
FORT PULASKI     1148   72 80  320/  5/  6 1016.9R
SAPELO ISLAND    1100   73     330/  1     1016.0

$$

ANZ835-935-AMZ111-154-330-350-352-354-370-450-454-472-161300-
...C-MAN AND BUOY OBSERVATIONS...

STATION/POSITION TIME  TEMP    WIND        PRES    WAVE   SWELL
                       AIR SEA DIR/SP/G            HT/PER HT/PER/DIR
                 (UTC) (F)     (DEG/KT/KT) (MB)    (FT/S) (FT/S/D)
BUOY 41004       1150   80 81  270/ 10/ 14 1015.0R   4/ 9   3/ 90/ 9
BUOY 41008       1150   78 79  250/  6/  8 1015.7R   2/10   2/ 60/10
FOLLY BEACH CMAN 1100   72     300/  5/  7 1016.5R
CAPERS NEARSHORE 1108   71 78  320/  8/ 12 1015.5R
FRIPP NEARSHORE  1108   75     320/  6/  8   N/A


STATION/POSITION TIME  TEMP    WIND        PRES    WAVE   SWELL
                       AIR SEA DIR/SP/G            HT/PER HT/PER/DIR
                 (UTC) (F)     (DEG/KT/KT) (MB)    (FT/S) (FT/S/D)
5E ST. MARYS GA  1130      80                N/A     2/10
FRYING PAN BUOY  1150   78 79  270/ 14/ 25 1015.0F   3/ 8   3/110/ 8
BUOY 41025       1150   78 77  230/  6/  8 1015.1R   4/ 4   3/190/ 4
CAPE LOOKOUT NC  1100   76     270/  6/  7 1014.8F
BUOY 41002       1150   78 80  160/  4/  6 1016.4R   4/ 8   3/ 40/ 8
BUOY 41010       NOT AVBL
ST AUGUSTINE FL  1200   76 80  300/  4/  5 1016.5R


$$




USA.gov is the U.S. government's official web portal to all federal, state and local government web resources and services.